Flag for Canada Weather past 2 weeks in Medicine Hat, Alberta, Canada

Now
5 °F

Clear.


Feels Like: -12 °F
Forecast: -1 / 13 °F
Wind: 13 mph from Northwest

Location: Medicine Hat

Current Time: Mar 3, 2015 at 2:27:06 AM

Latest Report: Mar 3, 2015 at 2:00 AM


Visibility: 9 mi

Pressure: 30.42 "Hg

Humidity: 72%

Dew point: -2 °F

Location of Medicine HatLocation

Historic Weather in Medicine Hat — Graph

°F

Medicine Hat temperature yesterday

Maximum temperature yesterday: 28 °F (at 10:00 AM)
Minimum temperature yesterday: 5 °F (at 11:00 PM)
Average temperature yesterday: 22 °F

Past Weeks' High & Low Weather Summary

 TemperatureHumidityPressure
High50 °F (Feb 19, 3:00 PM)100% (Feb 19, 4:00 AM)30.78 "Hg (Feb 19, 4:00 AM)
Low-9 °F (Feb 26, 7:00 AM)34% (Feb 22, 3:00 PM)29.83 "Hg (Mar 2, 4:00 AM)
Average22 °F76%30.29 "Hg
* Reported Feb 16 1:00 AM — Mar 3 1:00 AM, Medicine Hat, Weather by CustomWeather, © 2015

Note: Actual official high and low records may vary slightly from our data, if they occured in-between our weather recording intervals... More about our weather records

Advertising

Medicine Hat weather history for previous 24 hours

 ConditionsComfort  
Time TempWeatherWind HumidityBarometerVisibility
1:00 AM
Tue, Mar 3
7 °FClear.10 mph72%30.40 "Hg9 mi
12:00 AM7 °FPassing clouds.7 mph78%30.39 "Hg9 mi
11:00 PM
Mon, Mar 2
5 °FClear.7 mph85%30.37 "Hg9 mi
10:00 PM10 °FClear.12 mph72%30.34 "Hg9 mi
9:00 PM12 °FClear.14 mph67%30.33 "Hg9 mi
8:00 PM14 °FPassing clouds.17 mph67%30.32 "Hg15 mi
7:00 PM16 °FPassing clouds.18 mph62%30.29 "Hg15 mi
6:00 PM19 °FBroken clouds.20 mph63%30.25 "Hg30 mi
5:00 PM21 °FPartly sunny.24 mph58%30.22 "Hg30 mi
4:00 PM23 °FBroken clouds.22 mph63%30.18 "Hg15 mi
3:00 PM25 °FSnow flurries. Partly sunny.22 mph59%30.14 "Hg6 mi
2:00 PM25 °FSnow flurries. Overcast.22 mph63%30.13 "Hg5 mi
1:00 PM25 °FSnow flurries. Overcast.22 mph69%30.12 "Hg4 mi
12:00 PM25 °FSnow flurries. Overcast.28 mph80%30.09 "Hg1 mi
11:00 AM27 °FOvercast.28 mph74%30.04 "Hg15 mi
10:00 AM28 °FPartly sunny.26 mph74%30.00 "Hg15 mi
9:00 AM27 °FOvercast.16 mph86%29.96 "Hg10 mi
8:00 AM25 °FIce fog.9 mph86%29.93 "Hg6 mi
7:52 AM25 °FOvercast.10 mph86%29.93 "Hg10 mi
7:00 AM23 °FMostly cloudy.8 mph80%29.92 "Hg15 mi
6:00 AM23 °FPassing clouds.12 mph80%29.88 "Hg10 mi
5:00 AM21 °FClear.17 mph80%29.84 "Hg9 mi
4:00 AM21 °FPassing clouds.16 mph80%29.83 "Hg9 mi
3:00 AM25 °FClear.15 mph63%29.84 "Hg9 mi
2:00 AM25 °FClear.10 mph63%29.88 "Hg9 mi
Weather by CustomWeather, © 2015

See weather overviewHow to use our weather pages